Location: Westerlo
(51.0830°N, 4.9170°E)
Time: 20:27:26
(UTC+02:00)

ISS - Pass Details

Date: 24 April 2026
Orbit: 414 x 424 km, 51.6° (Epoch: 12 May)

Event Time Altitude Azimuth Distance (km) Brightness Sun altitude
Exits shadow 05:31:24 12° 236° (SW) 1,370 -1.8 -8.6°
Maximum altitude 05:34:22 56° 158° (SSE) 504 -3.4 -8.2°
Drops below altitude 10° 05:37:42 10° 80° (E) 1,508 0.4 -7.8°
Sets 05:39:50 0° 76° (ENE) 2,377 1.8 -7.5°
